Location: Cogollal
(10.0582°N, 67.8466°W)
Time: 12:02:52
(UTC+00:00)

SL-16 R/B - Pass Details

Date: 14 April 2024
Orbit: 839 x 849 km, 71.0° (Epoch: 24 May)

Event Time Altitude Azimuth Distance (km) Brightness Sun altitude
Exits shadow 09:03:31 12° 315° (NW) 2,275 4.1 -19.6°
Drops below altitude 10° 09:04:29 10° 324° (NW) 2,447 4.4 -19.3°
Sets 09:08:01 0° 347° (NNW) 3,382 5.4 -18.5°
